[[{"header":{"parameterUnit":"m.s-1","parameterCategory":1,"la1":30.2991,"la2":30.254,"lo1":-89.0895,"lo2":-89.0444,"dy":0.0017,"dx":0.0017,"nx":28,"ny":28,"refTime":"2024-05-22T21:00:00:Z","depth":0,"parameterNumber":2,"parameterNumberName":"U-component_of_WINDS"},"data":[0,0,0,0,0,0,0,0,0,0,0,0,0,0,0,0,0,0,0,0,0,0,0,0,0,0,0,0,0,0,0,0,0,0,0,0,0,0,0,0,0,0,0,0,0,0,0,0,0,0,0,0,0,0,0,0,0,0,-1.5942,-1.5942,0,-1.5907,-1.5907,-1.5907,-1.5872,-1.5872,-1.5871,-1.5871,-1.5835,-1.5834,-1.5834,0,0,0,0,0,0,0,0,0,0,0,0,0,-1.5979,-1.5978,-1.5942,-1.5942,-1.5941,-1.5908,-1.5907,-1.5907,-1.5872,-1.5872,-1.5871,-1.5871,-1.5835,-1.5834,-1.5834,0,0,0,0,0,0,0,0,0,0,0,0,0,-1.5955,-1.5978,-1.5942,-1.592,-1.5918,-1.5908,-1.5907,-1.5906,-1.5872,-1.5872,-1.5871,-1.587,-1.5835,-1.5835,-1.5834,-1.5843,0,0,-1.5831,-1.5831,0,0,0,0,0,0,0,0,-1.5957,-1.5954,-1.5924,-1.5922,-1.5919,-1.5893,-1.5907,-1.5885,-1.5873,-1.589,-1.5871,-1.587,-1.5855,-1.5852,-1.5847,-1.5841,-1.5839,-1.5831,-1.5831,-1.583,-1.583,0,0,0,0,0,0,0,-1.5959,-1.5955,-1.5928,-1.5923,-1.592,-1.5912,-1.5908,-1.5903,-1.5876,-1.5888,-1.5885,-1.5882,-1.5853,-1.5848,-1.5846,-1.5839,-1.5831,-1.5831,-1.583,-1.583,-1.5838,-1.5839,0,0,0,0,0,0,-1.5963,-1.5957,-1.5929,-1.5927,-1.5937,-1.5912,-1.5907,-1.5902,-1.5876,-1.5872,-1.5882,-1.588,-1.585,-1.5847,-1.5845,-1.5854,-1.583,-1.583,-1.5829,-1.5838,-1.5838,-1.5839,0,0,0,0,0,0,-1.5964,-1.5961,-1.5931,-1.5941,-1.5937,-1.5912,-1.5907,-1.5902,-1.5897,-1.5872,-1.5867,-1.5882,-1.5849,-1.5846,-1.5844,-1.5852,-1.5829,-1.5829,-1.5837,-1.5838,-1.5839,-1.5871,0,0,0,0,0,0,-1.5966,-1.5962,-1.5965,-1.5942,-1.5937,-1.593,-1.5907,-1.5902,-1.5896,-1.5892,-1.587,-1.5866,-1.5849,-1.5845,-1.5843,-1.585,-1.5828,-1.5836,-1.5837,-1.5838,-1.5869,-1.5873,-1.5877,0,0,0,0,0,-1.5967,-1.5975,-1.5965,-1.5962,-1.594,-1.5931,-1.5928,-1.5907,-1.5896,-1.5899,-1.5884,-1.5867,-1.5852,-1.5845,-1.5842,-1.585,-1.5835,-1.5837,-1.5838,-1.5868,-1.5873,-1.5877,0,0,0,0,0,0,-1.6,-1.5972,-1.596,-1.5961,-1.5949,-1.5925,-1.5928,-1.5913,-1.5903,-1.5901,-1.5876,-1.5871,-1.5871,-1.586,-1.5854,-1.5857,-1.5841,-1.5842,-1.5864,-1.5869,-1.5872,-1.5875,-1.5827,0,0,0,0,0,-1.6007,-1.6002,-1.5978,-1.5981,-1.5975,-1.5953,-1.5948,-1.5934,-1.5919,-1.5914,-1.5898,-1.5885,-1.5877,-1.5872,-1.5864,-1.5868,-1.5863,-1.5872,-1.5876,-1.5879,-1.588,-1.5881,-1.5885,-1.5844,-1.5844,-1.5844,0,0,-1.6022,-1.6006,-1.6004,-1.5987,-1.5975,-1.5971,-1.5948,-1.5944,-1.5941,-1.5913,-1.591,-1.5898,-1.5882,-1.5883,-1.5882,-1.5873,-1.589,-1.5881,-1.5883,-1.5883,-1.5883,-1.5887,-1.5891,-1.5845,-1.5845,-1.5845,0,0,-1.6047,-1.6034,-1.6036,-1.6025,-1.6008,-1.5993,-1.5993,-1.5972,-1.5963,-1.5959,-1.5939,-1.5934,-1.5921,-1.5911,-1.5904,-1.5926,-1.591,-1.5924,-1.5943,-1.5945,-1.5948,-1.5951,-1.5958,-1.5962,-1.5925,-1.5925,-1.5925,0,-1.6067,-1.6059,-1.6038,-1.6035,-1.6029,-1.6004,-1.6005,-1.5996,-1.5977,-1.5973,-1.5964,-1.5947,-1.5935,-1.5933,-1.5938,-1.5934,-1.5933,-1.5926,-1.5949,-1.5952,-1.5954,-1.5961,-1.5964,-1.5927,-1.5927,-1.5927,-1.5926,0,-1.6086,-1.6081,-1.6084,-1.6067,-1.606,-1.606,-1.6038,-1.6035,-1.6021,-1.6007,-1.6004,-1.5989,-1.5977,-1.5975,-1.5962,-1.5972,-1.5967,-1.5954,-1.5937,-1.596,-1.5966,-1.5969,-1.5929,-1.5929,-1.5928,-1.5928,0,0,-1.6129,-1.6101,-1.6102,-1.6094,-1.6074,-1.607,-1.6069,-1.6057,-1.6054,-1.6043,-1.6041,-1.6031,-1.6019,-1.6011,-1.5996,-1.5998,-1.6017,-1.5985,-1.5984,-1.5991,-1.6027,-1.6037,-1.604,-1.6007,-1.6007,-1.6007,-1.6028,0,-1.6151,-1.6146,-1.6127,-1.6129,-1.6124,-1.6101,-1.61,-1.6088,-1.6075,-1.6069,-1.6055,-1.6049,-1.6033,-1.6028,-1.6029,-1.6014,-1.6024,-1.6013,-1.6005,-1.6005,-1.6009,-1.6044,-1.6054,-1.6074,-1.6031,-1.6031,-1.6031,0,-1.6175,-1.6165,-1.6165,-1.6146,-1.6143,-1.6142,-1.6131,-1.6125,-1.6111,-1.6102,-1.6094,-1.6078,-1.6075,-1.606,-1.6056,-1.6049,-1.6045,-1.6037,-1.6038,-1.6036,-1.6019,-1.6042,-1.608,-1.6083,-1.6035,-1.6035,-1.6034,0,-1.6206,-1.6193,-1.6192,-1.6186,-1.6163,-1.6163,-1.6153,-1.6139,-1.6133,-1.6123,-1.6119,-1.6109,-1.6103,-1.6096,-1.6078,-1.6068,-1.6076,-1.6059,-1.6068,-1.6069,-1.607,-1.607,-1.6108,-1.6068,-1.6068,-1.6068,-1.6068,0,-1.6232,-1.6233,-1.6206,-1.6205,-1.6206,-1.6185,-1.6187,-1.6175,-1.6162,-1.6159,-1.6139,-1.6136,-1.6112,-1.6107,-1.6093,-1.6092,-1.6089,-1.6082,-1.6078,-1.6083,-1.6084,-1.608,-1.6078,-1.6069,-1.6069,-1.6069,-1.6069,0,-1.6267,-1.6249,-1.6246,-1.6225,-1.622,-1.6221,-1.6203,-1.6202,-1.6188,-1.6185,-1.6183,-1.6161,-1.6154,-1.6135,-1.6123,-1.6114,-1.6117,-1.611,-1.6122,-1.6119,-1.6129,-1.6129,-1.6165,-1.6168,-1.6127,-1.6128,-1.6128,0,-1.6285,-1.6285,-1.6264,-1.6261,-1.6252,-1.6246,-1.6241,-1.622,-1.6215,-1.6199,-1.62,-1.6191,-1.6183,-1.6173,-1.6157,-1.6148,-1.614,-1.6153,-1.6138,-1.6144,-1.614,-1.614,-1.614,-1.6157,-1.6157,-1.6158,-1.6158,0,-1.6318,-1.6309,-1.6301,-1.6291,-1.6285,-1.6275,-1.6265,-1.6263,-1.624,-1.6236,-1.6228,-1.6222,-1.621,-1.6202,-1.6191,-1.6181,-1.6166,-1.6163,-1.6164,-1.617,-1.6177,-1.6173,-1.613,-1.6162,-1.6162,-1.6161,-1.6161,-1.6161,-1.6345,-1.6344,-1.6329,-1.6322,-1.6312,-1.6303,-1.63,-1.6287,-1.628,-1.6269,-1.6257,-1.6251,-1.6237,-1.622,-1.6212,-1.6207,-1.6199,-1.6201,-1.6202,-1.6203,-1.6205,-1.6178,-1.6205,-1.6205,-1.6205,-1.6205,-1.6204,0,-1.6376,-1.6366,-1.6359,-1.6345,-1.634,-1.6326,-1.6314,-1.631,-1.6305,-1.6294,-1.6286,-1.6278,-1.627,-1.6254,-1.6244,-1.6243,-1.6236,-1.6242,-1.6241,-1.6239,-1.6213,-1.6212,-1.6248,-1.6248,-1.6248,-1.6248,-1.6248,-1.6248,-1.6392,-1.6391,-1.638,-1.6374,-1.6363,-1.6357,-1.6351,-1.6343,-1.6334,-1.6325,-1.6319,-1.6308,-1.6294,-1.6284,-1.6276,-1.6272,-1.6269,-1.6277,-1.627,-1.6245,-1.6241,-1.6237,-1.6237,-1.6277,-1.6277,-1.6297,-1.6297,-1.6297]},{"header":{"parameterUnit":"m.s-1","parameterCategory":1,"la1":30.2991,"la2":30.254,"lo1":-89.0895,"lo2":-89.0444,"dy":0.0017,"dx":0.0017,"nx":28,"ny":28,"refTime":"2024-05-22T21:00:00:Z","depth":0,"parameterNumber":3,"parameterNumberName":"V-component_of_WINDS"},"data":[0,0,0,0,0,0,0,0,0,0,0,0,0,0,0,0,0,0,0,0,0,0,0,0,0,0,0,0,0,0,0,0,0,0,0,0,0,0,0,0,0,0,0,0,0,0,0,0,0,0,0,0,0,0,0,0,0,0,4.0825,4.0825,0,4.0825,4.0825,4.0825,4.0786,4.0785,4.0784,4.0783,4.0783,4.0784,4.0785,0,0,0,0,0,0,0,0,0,0,0,0,0,4.0792,4.0792,4.0825,4.0825,4.0825,4.0825,4.0825,4.0825,4.0786,4.0785,4.0784,4.0783,4.0783,4.0784,4.0785,0,0,0,0,0,0,0,0,0,0,0,0,0,4.08,4.0793,4.0825,4.0806,4.0804,4.0825,4.0825,4.0825,4.0787,4.0785,4.0784,4.0782,4.0782,4.0784,4.0785,4.0824,0,0,4.0789,4.079,0,0,0,0,0,0,0,0,4.08,4.0802,4.0809,4.0807,4.0805,4.0804,4.0813,4.0825,4.0787,4.0793,4.0783,4.0782,4.0791,4.0792,4.0795,4.0824,4.0824,4.0789,4.079,4.0791,4.0791,0,0,0,0,0,0,0,4.0799,4.0801,4.0825,4.0809,4.0807,4.0797,4.0797,4.0815,4.0801,4.0793,4.079,4.079,4.079,4.0794,4.0795,4.0824,4.0789,4.0791,4.0791,4.0792,4.0886,4.0888,0,0,0,0,0,0,4.0801,4.0801,4.0825,4.0825,4.0799,4.0799,4.0799,4.0806,4.08,4.0798,4.0792,4.0789,4.0792,4.0793,4.0795,4.0841,4.0791,4.0792,4.0793,4.0885,4.0887,4.0888,0,0,0,0,0,0,4.0801,4.0804,4.0825,4.0812,4.0814,4.0801,4.081,4.0807,4.0811,4.08,4.0797,4.0798,4.0791,4.0793,4.0817,4.084,4.0793,4.0794,4.0883,4.0885,4.0887,4.0933,0,0,0,0,0,0,4.08,4.0804,4.0819,4.0813,4.0815,4.0848,4.0811,4.0808,4.0813,4.0809,4.0805,4.0803,4.079,4.0815,4.0819,4.0841,4.0795,4.088,4.0884,4.0887,4.0929,4.0937,4.0943,0,0,0,0,0,4.0799,4.0831,4.082,4.0823,4.0833,4.0849,4.085,4.0835,4.0815,4.083,4.0823,4.0803,4.0837,4.0818,4.0822,4.0845,4.0879,4.0883,4.0886,4.0926,4.0935,4.0943,0,0,0,0,0,0,4.0839,4.083,4.0817,4.0848,4.085,4.0843,4.0861,4.0845,4.0852,4.0848,4.0828,4.0827,4.0855,4.0852,4.0832,4.0883,4.0855,4.0859,4.0884,4.0892,4.0899,4.0899,4.0796,0,0,0,0,0,4.0852,4.0866,4.0857,4.0885,4.0887,4.0874,4.088,4.0868,4.0869,4.0869,4.0864,4.0866,4.0876,4.0884,4.0894,4.0929,4.0928,4.0947,4.0953,4.0959,4.0963,4.0982,4.0991,4.0901,4.0901,4.0901,0,0,4.0878,4.0875,4.0885,4.0893,4.0893,4.0908,4.0875,4.0892,4.0903,4.0872,4.0895,4.0891,4.0892,4.0922,4.0935,4.0921,4.0988,4.0964,4.0968,4.097,4.0987,4.0996,4.1003,4.0903,4.0903,4.0902,0,0,4.0933,4.0932,4.0956,4.0957,4.0957,4.0948,4.0954,4.095,4.0946,4.0969,4.0947,4.0959,4.0979,4.098,4.0983,4.104,4.1022,4.1044,4.1079,4.1098,4.1105,4.1112,4.1132,4.114,4.1048,4.1048,4.1048,0,4.0966,4.0987,4.097,4.0989,4.0994,4.0967,4.0992,4.0993,4.0996,4.1,4.0984,4.1008,4.1006,4.1037,4.1051,4.1055,4.1061,4.1044,4.1106,4.1112,4.1117,4.1137,4.1145,4.1051,4.105,4.105,4.105,0,4.1027,4.1043,4.1062,4.1067,4.1074,4.1095,4.1082,4.1091,4.1078,4.1071,4.1096,4.1093,4.1101,4.1108,4.1095,4.1137,4.1128,4.1109,4.108,4.1129,4.1147,4.1154,4.1054,4.1054,4.1053,4.1052,0,0,4.1108,4.1103,4.1111,4.1113,4.1112,4.1123,4.1144,4.1153,4.1161,4.1165,4.1182,4.1199,4.1182,4.1185,4.1173,4.119,4.1236,4.1168,4.1168,4.1182,4.1282,4.1297,4.1306,4.1224,4.1225,4.1226,4.1282,0,4.1162,4.1197,4.1183,4.1219,4.1233,4.1209,4.1226,4.1228,4.1222,4.1233,4.1227,4.124,4.1216,4.1218,4.1233,4.1227,4.1256,4.1223,4.124,4.124,4.1241,4.1315,4.133,4.1383,4.1289,4.129,4.1291,0,4.1229,4.1236,4.1274,4.1272,4.1277,4.1293,4.1301,4.1312,4.1313,4.1308,4.1313,4.1297,4.1317,4.1288,4.1316,4.1294,4.13,4.1298,4.13,4.1301,4.1269,4.1319,4.14,4.1408,4.1302,4.1301,4.13,0,4.1285,4.1304,4.1329,4.1332,4.1329,4.1341,4.134,4.134,4.1347,4.1353,4.1357,4.1366,4.1371,4.1378,4.1365,4.1345,4.1395,4.1364,4.1391,4.1391,4.1403,4.1402,4.1486,4.1406,4.1406,4.1406,4.1406,0,4.1347,4.1372,4.1354,4.137,4.1397,4.138,4.1407,4.1403,4.1404,4.1418,4.1397,4.1411,4.1393,4.1406,4.1395,4.142,4.1422,4.1419,4.1416,4.1421,4.1422,4.1425,4.1421,4.1408,4.1407,4.1407,4.1407,0,4.1414,4.1403,4.1429,4.1425,4.1424,4.1444,4.144,4.1455,4.1447,4.1466,4.147,4.1459,4.1472,4.146,4.1473,4.1466,4.15,4.1491,4.15,4.1497,4.1525,4.1523,4.1614,4.1626,4.1538,4.1539,4.1539,0,4.1454,4.1473,4.147,4.1479,4.148,4.1494,4.15,4.1485,4.1493,4.1496,4.151,4.1522,4.1531,4.1554,4.1547,4.1557,4.1549,4.158,4.155,4.1555,4.155,4.1549,4.1551,4.1587,4.1588,4.1588,4.1589,0,4.1528,4.1522,4.1533,4.1542,4.1551,4.1557,4.1562,4.157,4.1554,4.1564,4.1578,4.1585,4.1599,4.1611,4.1619,4.1618,4.1601,4.1599,4.1605,4.1611,4.1615,4.1614,4.1517,4.1597,4.1596,4.1595,4.1595,4.1595,4.1583,4.1599,4.16,4.1613,4.1615,4.162,4.1633,4.1628,4.164,4.165,4.164,4.1657,4.1658,4.1667,4.1668,4.1682,4.1668,4.1678,4.1681,4.1683,4.1688,4.1613,4.1683,4.1683,4.1682,4.1682,4.1682,0,4.1656,4.1656,4.1668,4.1675,4.1686,4.1669,4.1674,4.1684,4.1699,4.1702,4.1711,4.1727,4.1739,4.1734,4.1744,4.1756,4.1748,4.1759,4.1758,4.1759,4.1698,4.1692,4.1765,4.1765,4.1765,4.1765,4.1765,4.1765,4.1695,4.1721,4.1715,4.1742,4.1741,4.1758,4.1762,4.1767,4.1769,4.1788,4.1798,4.1795,4.1794,4.1804,4.1815,4.1813,4.1818,4.1831,4.1827,4.1771,4.1763,4.1755,4.1749,4.1833,4.1833,4.1886,4.1886,4.1887]}]]